Home > Weather > Guildford > Past weeks

Flag for United Kingdom Past Weather in Guildford, England, United Kingdom — Yesterday and Last 2 Weeks

Now
52 °F

Light rain. Passing clouds.


Feels Like: 50 °F
Forecast: 49 / 67 °F
Wind: 6 mph from East

Location: Odiham

Current Time: May 27, 2016 at 5:43:39 AM

Latest Report: May 27, 2016 at 4:50 AM


Visibility: N/A

Pressure: 30.01 "Hg

Humidity: 94%

Dew Point: 50 °F

Location of GuildfordLocation

Past Weather in Guildford — Graph

°F

Guildford Temperature Yesterday

Maximum temperature yesterday: 66 °F (at 3:50 PM)
Minimum temperature yesterday: 39 °F (at 3:50 AM)
Average temperature yesterday: 55 °F

High & Low Weather Summary for the Past Weeks

 TemperatureHumidityPressure
High72 °F (May 12, 3:50 PM)100% (May 12, 3:50 AM)30.21 "Hg (May 12, 3:50 AM)
Low39 °F (May 15, 2:50 AM)39% (May 15, 2:50 PM)29.56 "Hg (May 12, 4:50 AM)
Average54 °F75%29.94 "Hg
* Reported May 12 3:50 AM — May 27 3:50 AM, Guildford, Weather by CustomWeather, © 2016

Note: Actual official high and low records may vary slightly from our data, if they occured in-between our weather recording intervals... More about our weather records

Advertising

Guildford Weather History for the Previous 24 Hours

Scroll right to see more
 ConditionsComfort  
Time TempWeatherWind HumidityBarometerVisibility
3:50 AM
Fri, May 27
52 °FLight rain. Passing clouds.7 mph94%30.01 "HgN/A
2:50 AM52 °FClear.5 mph88%30.01 "Hg10 mi
1:50 AM54 °FClear.5 mph82%30.01 "Hg10 mi
12:50 AM55 °FClear.6 mph82%29.98 "Hg10 mi
11:50 PM
Thu, May 26
55 °FPassing clouds.3 mph82%29.98 "HgN/A
10:50 PM57 °FClear.2 mph77%29.98 "Hg10 mi
9:50 PM59 °FBroken clouds.5 mph72%29.98 "HgN/A
8:50 PM61 °FScattered clouds.6 mph68%29.98 "HgN/A
7:50 PM64 °FSunny.6 mph60%29.95 "Hg10 mi
6:50 PM66 °FPassing clouds.3 mph46%29.95 "HgN/A
5:50 PM66 °FPassing clouds.2 mph46%29.95 "HgN/A
4:50 PM66 °FPassing clouds.3 mph49%29.95 "HgN/A
3:50 PM66 °FPassing clouds.5 mph49%29.98 "HgN/A
2:50 PM64 °FScattered clouds.3 mph52%29.98 "HgN/A
1:50 PM63 °FScattered clouds.5 mph56%29.98 "HgN/A
12:50 PM61 °FScattered clouds.2 mph59%30.01 "HgN/A
11:50 AM59 °FPartly sunny.3 mph59%30.01 "HgN/A
10:50 AM57 °FPassing clouds.3 mph63%30.01 "HgN/A
9:50 AM55 °FScattered clouds.5 mph67%30.01 "HgN/A
8:50 AM54 °FScattered clouds.5 mph77%30.01 "HgN/A
7:50 AM50 °FHaze.3 mph88%30.01 "Hg6 mi
6:50 AM46 °FFog.2 mph93%30.01 "Hg4 mi
5:50 AM41 °FSnow. Light fog.2 mph93%30.01 "Hg5 mi
Weather by CustomWeather, © 2016

See weather overviewHow to use our weather pages